OYYOR EKRK-EKOD

Flight info

Callsign OYYOR
Flight time 0h 41m
Altitude 4000
Route KOR
Aircraft C172/L-FGO/C

Departure

Time 2026-04-26 12:03
Airport Copenhagen Roskilde Airport (EKRK)

Arrival

Time 2026-04-26 12:44
Airport Odense Hans Christian Andersen Airport (EKOD)
Time Latitude Longitude Altitude Speed Heading
2026-04-26 11:46 55.58924 12.12869 143 ft 0 kts 26°
2026-04-26 11:56 55.58924 12.12870 143 ft 0 kts 22°
2026-04-26 11:56 55.58929 12.12872 143 ft 0 kts 18°
2026-04-26 11:56 55.58931 12.12873 143 ft 0 kts 16°
2026-04-26 11:57 55.58937 12.12879 143 ft 0 kts 37°
2026-04-26 11:57 55.58945 12.12894 143 ft 4 kts 60°
2026-04-26 11:57 55.58938 12.12965 143 ft 7 kts 114°
2026-04-26 11:57 55.58911 12.13062 144 ft 10 kts 117°
2026-04-26 11:58 55.58863 12.13119 143 ft 10 kts 213°
2026-04-26 11:58 55.58786 12.13049 142 ft 12 kts 211°
2026-04-26 11:58 55.58747 12.13112 142 ft 10 kts 117°
2026-04-26 11:58 55.58712 12.13236 142 ft 12 kts 115°
2026-04-26 11:59 55.58669 12.13389 142 ft 15 kts 114°
2026-04-26 11:59 55.58619 12.13570 143 ft 17 kts 116°
2026-04-26 11:59 55.58532 12.13683 142 ft 11 kts 160°
2026-04-26 11:59 55.58506 12.13699 142 ft 0 kts 161°
2026-04-26 12:00 55.58506 12.13700 142 ft 0 kts 161°
2026-04-26 12:01 55.58490 12.13709 142 ft 4 kts 160°
2026-04-26 12:01 55.58452 12.13728 142 ft 7 kts 169°
2026-04-26 12:01 55.58406 12.13682 142 ft 9 kts 255°
2026-04-26 12:01 55.58435 12.13576 141 ft 10 kts 295°
2026-04-26 12:02 55.58527 12.13251 140 ft 53 kts 298°
2026-04-26 12:02 55.58728 12.12523 220 ft 69 kts 290°
2026-04-26 12:02 55.58899 12.11762 394 ft 66 kts 287°
2026-04-26 12:02 55.58922 12.11018 594 ft 67 kts 243°
2026-04-26 12:03 55.58618 12.10385 762 ft 69 kts 228°
2026-04-26 12:03 55.58312 12.09816 966 ft 61 kts 239°
2026-04-26 12:03 55.58051 12.09129 1062 ft 71 kts 241°
2026-04-26 12:03 55.57761 12.08296 1144 ft 84 kts 244°
2026-04-26 12:04 55.57446 12.07432 1325 ft 85 kts 239°
2026-04-26 12:04 55.57072 12.06607 1506 ft 85 kts 236°
2026-04-26 12:04 55.56676 12.05783 1640 ft 90 kts 235°
2026-04-26 12:04 55.56284 12.04913 1769 ft 92 kts 237°
2026-04-26 12:05 55.55896 12.04036 1890 ft 86 kts 238°
2026-04-26 12:05 55.55541 12.03256 1997 ft 77 kts 237°
2026-04-26 12:05 55.55219 12.02573 2107 ft 68 kts 236°
2026-04-26 12:05 55.54944 12.01953 2216 ft 61 kts 237°
2026-04-26 12:06 55.54684 12.01346 2346 ft 63 kts 239°
2026-04-26 12:06 55.54412 12.00690 2478 ft 69 kts 242°
2026-04-26 12:06 55.54151 11.99929 2616 ft 76 kts 245°
2026-04-26 12:06 55.53874 11.99093 2751 ft 82 kts 246°
2026-04-26 12:07 55.53581 11.98202 2883 ft 87 kts 246°
2026-04-26 12:07 55.53276 11.97274 3016 ft 90 kts 246°
2026-04-26 12:07 55.52954 11.96280 3068 ft 100 kts 246°
2026-04-26 12:07 55.52602 11.95134 3060 ft 109 kts 248°
2026-04-26 12:08 55.52298 11.93896 3059 ft 113 kts 251°
2026-04-26 12:08 55.51996 11.92588 3056 ft 115 kts 252°
2026-04-26 12:08 55.51698 11.91280 3056 ft 115 kts 252°
2026-04-26 12:08 55.51405 11.89995 3132 ft 110 kts 251°
2026-04-26 12:09 55.51124 11.88779 3256 ft 105 kts 251°
2026-04-26 12:09 55.50852 11.87601 3380 ft 102 kts 252°
2026-04-26 12:09 55.50580 11.86455 3505 ft 100 kts 251°
2026-04-26 12:09 55.50309 11.85336 3634 ft 99 kts 250°
2026-04-26 12:10 55.49994 11.84273 3763 ft 98 kts 248°
2026-04-26 12:10 55.49664 11.83219 3886 ft 98 kts 247°
2026-04-26 12:10 55.49333 11.82174 4011 ft 97 kts 247°
2026-04-26 12:10 55.49001 11.81129 4139 ft 97 kts 246°
2026-04-26 12:11 55.48671 11.80082 4265 ft 97 kts 246°
2026-04-26 12:11 55.48348 11.79052 4380 ft 98 kts 246°
2026-04-26 12:11 55.47995 11.77919 4360 ft 109 kts 246°
2026-04-26 12:11 55.47632 11.76720 4358 ft 113 kts 247°
2026-04-26 12:12 55.47259 11.75466 4354 ft 116 kts 248°
2026-04-26 12:12 55.46884 11.74206 4354 ft 117 kts 247°
2026-04-26 12:12 55.46508 11.72942 4354 ft 117 kts 248°
2026-04-26 12:12 55.46253 11.72082 4353 ft 118 kts 248°
2026-04-26 12:13 55.45747 11.70388 4354 ft 118 kts 248°
2026-04-26 12:13 55.45363 11.69101 4354 ft 118 kts 247°
2026-04-26 12:13 55.44977 11.67822 4354 ft 118 kts 247°
2026-04-26 12:13 55.44601 11.66564 4354 ft 117 kts 247°
2026-04-26 12:14 55.44275 11.65246 4352 ft 115 kts 256°
2026-04-26 12:14 55.44038 11.63894 4355 ft 115 kts 258°
2026-04-26 12:14 55.43840 11.62548 4352 ft 113 kts 264°
2026-04-26 12:14 55.43781 11.61168 4354 ft 112 kts 272°
2026-04-26 12:15 55.43773 11.59797 4355 ft 112 kts 274°
2026-04-26 12:15 55.43768 11.58424 4355 ft 112 kts 274°
2026-04-26 12:15 55.43762 11.57063 4355 ft 112 kts 274°
2026-04-26 12:15 55.43754 11.55681 4354 ft 112 kts 273°
2026-04-26 12:16 55.43747 11.54322 4354 ft 112 kts 274°
2026-04-26 12:16 55.43740 11.52948 4355 ft 112 kts 274°
2026-04-26 12:16 55.43737 11.51579 4353 ft 112 kts 276°
2026-04-26 12:16 55.43803 11.50207 4355 ft 111 kts 279°
2026-04-26 12:17 55.43881 11.48860 4355 ft 111 kts 279°
2026-04-26 12:17 55.43961 11.47510 4355 ft 111 kts 280°
2026-04-26 12:17 55.44038 11.46158 4356 ft 111 kts 280°
2026-04-26 12:17 55.44117 11.44798 4355 ft 111 kts 279°
2026-04-26 12:18 55.44190 11.43446 4357 ft 111 kts 277°
2026-04-26 12:18 55.44231 11.42096 4355 ft 111 kts 276°
2026-04-26 12:18 55.44273 11.40724 4358 ft 111 kts 277°
2026-04-26 12:18 55.44314 11.39374 4365 ft 110 kts 277°
2026-04-26 12:19 55.44353 11.38036 4368 ft 110 kts 277°
2026-04-26 12:19 55.44391 11.36716 4369 ft 103 kts 277°
2026-04-26 12:19 55.44424 11.35505 4366 ft 95 kts 277°
2026-04-26 12:19 55.44452 11.34370 4367 ft 91 kts 276°
2026-04-26 12:20 55.44477 11.33265 4367 ft 88 kts 276°
2026-04-26 12:20 55.44501 11.32188 4365 ft 87 kts 276°
2026-04-26 12:20 55.44524 11.31131 4366 ft 86 kts 276°
2026-04-26 12:20 55.44545 11.30079 4368 ft 85 kts 276°
2026-04-26 12:21 55.44568 11.29031 4370 ft 85 kts 276°
2026-04-26 12:21 55.44590 11.28002 4373 ft 85 kts 276°
2026-04-26 12:21 55.44608 11.26955 4373 ft 85 kts 276°
2026-04-26 12:21 55.44629 11.25917 4373 ft 84 kts 276°
2026-04-26 12:22 55.44650 11.24882 4373 ft 84 kts 276°
2026-04-26 12:22 55.44673 11.23850 4373 ft 84 kts 276°
2026-04-26 12:22 55.44696 11.22825 4373 ft 84 kts 276°
2026-04-26 12:22 55.44719 11.21802 4373 ft 84 kts 276°
2026-04-26 12:23 55.44742 11.20777 4373 ft 84 kts 276°
2026-04-26 12:23 55.44767 11.19740 4374 ft 83 kts 276°
2026-04-26 12:23 55.44789 11.18717 4372 ft 83 kts 276°
2026-04-26 12:23 55.44811 11.17700 4373 ft 84 kts 276°
2026-04-26 12:24 55.44836 11.16670 4374 ft 84 kts 276°
2026-04-26 12:24 55.44859 11.15647 4374 ft 84 kts 276°
2026-04-26 12:24 55.44883 11.14612 4374 ft 84 kts 276°
2026-04-26 12:25 55.44933 11.12536 4374 ft 85 kts 276°
2026-04-26 12:25 55.44960 11.11499 4372 ft 85 kts 276°
2026-04-26 12:25 55.44989 11.10464 4373 ft 85 kts 277°
2026-04-26 12:25 55.45013 11.09425 4372 ft 84 kts 276°
2026-04-26 12:26 55.45038 11.08391 4373 ft 84 kts 276°
2026-04-26 12:26 55.45060 11.07374 4372 ft 84 kts 276°
2026-04-26 12:26 55.45085 11.06344 4371 ft 83 kts 276°
2026-04-26 12:26 55.45112 11.05322 4369 ft 83 kts 276°
2026-04-26 12:27 55.45141 11.04301 4367 ft 83 kts 276°
2026-04-26 12:27 55.45171 11.03281 4365 ft 83 kts 276°
2026-04-26 12:27 55.45200 11.02257 4364 ft 83 kts 276°
2026-04-26 12:27 55.45229 11.01250 4364 ft 83 kts 276°
2026-04-26 12:28 55.45257 11.00225 4365 ft 83 kts 276°
2026-04-26 12:28 55.45284 10.99200 4363 ft 84 kts 276°
2026-04-26 12:28 55.45313 10.98178 4364 ft 84 kts 277°
2026-04-26 12:28 55.45341 10.97158 4360 ft 84 kts 276°
2026-04-26 12:29 55.45373 10.96131 4360 ft 84 kts 276°
2026-04-26 12:29 55.45407 10.95099 4361 ft 84 kts 276°
2026-04-26 12:29 55.45476 10.93052 4361 ft 83 kts 276°
2026-04-26 12:30 55.45511 10.92038 4362 ft 83 kts 276°
2026-04-26 12:30 55.45547 10.91013 4362 ft 83 kts 276°
2026-04-26 12:30 55.45586 10.89993 4364 ft 83 kts 276°
2026-04-26 12:31 55.45657 10.87970 4365 ft 83 kts 276°
2026-04-26 12:31 55.45689 10.86956 4361 ft 82 kts 276°
2026-04-26 12:31 55.45726 10.85954 4361 ft 82 kts 277°
2026-04-26 12:31 55.45764 10.84932 4360 ft 82 kts 276°
2026-04-26 12:32 55.45800 10.83928 4360 ft 83 kts 277°
2026-04-26 12:32 55.45836 10.82920 4361 ft 83 kts 276°
2026-04-26 12:32 55.45911 10.80878 4361 ft 83 kts 276°
2026-04-26 12:33 55.45953 10.79853 4362 ft 83 kts 276°
2026-04-26 12:33 55.45996 10.78844 4364 ft 83 kts 277°
2026-04-26 12:33 55.46039 10.77822 4360 ft 83 kts 276°
2026-04-26 12:33 55.46081 10.76805 4361 ft 83 kts 277°
2026-04-26 12:34 55.46123 10.75782 4360 ft 83 kts 276°
2026-04-26 12:34 55.46164 10.74779 4361 ft 83 kts 277°
2026-04-26 12:34 55.46203 10.73764 4359 ft 83 kts 277°
2026-04-26 12:34 55.46243 10.72750 4355 ft 83 kts 276°
2026-04-26 12:35 55.46286 10.71732 4356 ft 82 kts 276°
2026-04-26 12:35 55.46327 10.70729 4355 ft 82 kts 276°
2026-04-26 12:35 55.46370 10.69717 4353 ft 82 kts 276°
2026-04-26 12:35 55.46413 10.68709 4352 ft 83 kts 277°
2026-04-26 12:36 55.46458 10.67691 4350 ft 83 kts 277°
2026-04-26 12:36 55.46503 10.66680 4350 ft 83 kts 277°
2026-04-26 12:36 55.46549 10.65663 4349 ft 83 kts 277°
2026-04-26 12:36 55.46596 10.64647 4348 ft 83 kts 277°
2026-04-26 12:37 55.46647 10.63586 4234 ft 93 kts 277°
2026-04-26 12:37 55.46708 10.62402 4108 ft 98 kts 277°
2026-04-26 12:37 55.46772 10.61179 3985 ft 101 kts 277°
2026-04-26 12:37 55.46842 10.59948 3856 ft 103 kts 277°
2026-04-26 12:38 55.47072 10.58752 3725 ft 103 kts 295°
2026-04-26 12:38 55.47396 10.57619 3597 ft 103 kts 296°
2026-04-26 12:38 55.47733 10.56489 3467 ft 104 kts 296°
2026-04-26 12:38 55.48069 10.55363 3337 ft 104 kts 296°
2026-04-26 12:39 55.48406 10.54231 3203 ft 104 kts 296°
2026-04-26 12:39 55.48741 10.53097 3069 ft 105 kts 297°
2026-04-26 12:39 55.49079 10.51956 2928 ft 105 kts 297°
2026-04-26 12:39 55.49421 10.50805 2797 ft 105 kts 296°
2026-04-26 12:40 55.49766 10.49651 2668 ft 106 kts 297°
2026-04-26 12:40 55.50108 10.48504 2533 ft 106 kts 297°
2026-04-26 12:40 55.50451 10.47349 2400 ft 106 kts 297°
2026-04-26 12:40 55.50794 10.46196 2269 ft 106 kts 297°
2026-04-26 12:41 55.50936 10.44950 2138 ft 106 kts 260°
2026-04-26 12:41 55.50764 10.43690 2013 ft 106 kts 258°
2026-04-26 12:41 55.50589 10.42433 1866 ft 104 kts 256°
2026-04-26 12:41 55.50373 10.41253 1720 ft 90 kts 251°
2026-04-26 12:42 55.50101 10.40300 1548 ft 83 kts 243°
2026-04-26 12:42 55.49795 10.39408 1301 ft 87 kts 242°
2026-04-26 12:42 55.49482 10.38503 1100 ft 84 kts 244°
2026-04-26 12:42 55.49185 10.37616 893 ft 84 kts 240°
2026-04-26 12:43 55.48896 10.36745 697 ft 82 kts 240°
2026-04-26 12:43 55.48614 10.35905 504 ft 75 kts 246°
2026-04-26 12:43 55.48362 10.35151 328 ft 66 kts 241°
2026-04-26 12:43 55.48136 10.34500 155 ft 59 kts 240°
2026-04-26 12:44 55.47943 10.33933 59 ft 48 kts 234°
2026-04-26 12:44 55.47797 10.33468 53 ft 42 kts 238°
2026-04-26 12:44 55.47655 10.33039 56 ft 35 kts 241°
2026-04-26 12:44 55.47517 10.33013 56 ft 18 kts 234°
2026-04-26 12:45 55.47443 10.32793 57 ft 21 kts 241°
2026-04-26 12:45 55.47347 10.32794 57 ft 18 kts 136°
2026-04-26 12:45 55.47270 10.32673 57 ft 10 kts 216°
2026-04-26 12:45 55.47233 10.32700 57 ft 0 kts 90°